| time (UTC) | temp F | wind direction | speed MPH | gust MPH | rain 1hr in | rain 24hr in | rain mn in | humidity % | barometer mb |
| 20260510032708 | 62 | 0 | 0.0 | 0.0 | 0.00 | 0.02 | 0.02 | 76 | 1030.0 |
| 20260510031808 | 61 | 0 | 0.0 | 0.0 | 0.00 | 0.02 | 0.02 | 76 | 1030.0 |
| 20260510030908 | 61 | 0 | 0.0 | 0.0 | 0.00 | 0.02 | 0.02 | 76 | 1030.1 |
| 20260510030004 | 61 | 0 | 0.0 | 0.0 | 0.00 | 0.02 | 0.02 | 77 | 1030.2 |
| 20260510025617 | 61 | 0 | 0.0 | 0.0 | 0.00 | 0.02 | 0.02 | 77 | 1030.2 |
| 20260510024503 | 61 | 0 | 0.0 | 0.0 | 0.00 | 0.02 | 0.02 | 78 | 1030.3 |
| 20260510023613 | 61 | 0 | 0.0 | 0.0 | 0.00 | 0.02 | 0.02 | 78 | 1030.5 |
| 20260510022704 | 61 | 0 | 0.0 | 0.0 | 0.00 | 0.02 | 0.02 | 79 | 1030.6 |
| 20260510021804 | 61 | 0 | 0.0 | 0.0 | 0.00 | 0.02 | 0.02 | 78 | 1030.6 |
| 20260510020903 | 61 | 0 | 0.0 | 0.0 | 0.00 | 0.02 | 0.02 | 78 | 1030.8 |
| 20260510020004 | 61 | 0 | 0.0 | 0.0 | 0.00 | 0.02 | 0.02 | 78 | 1030.9 |
| 20260510015403 | 61 | 0 | 0.0 | 0.0 | 0.00 | 0.02 | 0.02 | 78 | 1031.0 |
| 20260510014718 | 60 | 0 | 0.0 | 0.0 | 0.00 | 0.02 | 0.02 | 79 | 1031.0 |
| 20260510013608 | 60 | 0 | 0.0 | 0.0 | 0.00 | 0.02 | 0.02 | 80 | 1031.1 |
| 20260510012703 | 60 | 0 | 0.0 | 0.0 | 0.00 | 0.02 | 0.02 | 80 | 1031.2 |
| 20260510011803 | 60 | 0 | 0.0 | 0.0 | 0.00 | 0.02 | 0.02 | 80 | 1031.3 |
| 20260510010903 | 60 | 0 | 0.0 | 0.0 | 0.00 | 0.02 | 0.02 | 82 | 1031.3 |
| 20260510010003 | 59 | 0 | 0.0 | 0.0 | 0.00 | 0.02 | 0.02 | 82 | 1031.3 |
| 20260510005408 | 59 | 0 | 0.0 | 0.0 | 0.00 | 0.02 | 0.02 | 83 | 1031.3 |
| 20260510004503 | 59 | 0 | 0.0 | 0.0 | 0.00 | 0.02 | 0.02 | 84 | 1031.3 |
| 20260510003603 | 58 | 0 | 0.0 | 0.0 | 0.00 | 0.02 | 0.02 | 87 | 1031.3 |
| 20260510002708 | 58 | 0 | 0.0 | 0.0 | 0.00 | 0.03 | 0.02 | 88 | 1031.4 |
| 20260510001803 | 58 | 0 | 0.0 | 0.0 | 0.00 | 0.03 | 0.02 | 89 | 1031.4 |
| 20260510000903 | 58 | 0 | 0.0 | 0.0 | 0.00 | 0.03 | 0.02 | 90 | 1031.4 |
| 20260510000008 | 58 | 0 | 0.0 | 0.0 | 0.00 | 0.03 | 0.02 | 90 | 1031.4 |
| 20260509235408 | 57 | 0 | 0.0 | 0.0 | 0.00 | 0.03 | 0.02 | 91 | 1031.3 |
| 20260509234503 | 57 | 0 | 0.0 | 0.0 | 0.00 | 0.03 | 0.02 | 91 | 1031.4 |
| 20260509233618 | 57 | 0 | 0.0 | 0.0 | 0.00 | 0.03 | 0.02 | 91 | 1031.3 |
| 20260509232703 | 57 | 0 | 0.0 | 0.0 | 0.00 | 0.03 | 0.02 | 91 | 1031.4 |
| 20260509231803 | 57 | 0 | 0.0 | 0.0 | 0.00 | 0.04 | 0.02 | 91 | 1031.3 |
| 20260509231114 | 57 | 0 | 0.0 | 0.0 | 0.00 | 0.04 | 0.02 | 91 | 1031.3 |
| 20260509230219 | 57 | 0 | 0.0 | 0.0 | 0.00 | 0.04 | 0.02 | 91 | 1031.4 |
| 20260509201805 | 56 | 0 | 0.0 | 0.0 | 0.00 | 0.08 | 0.02 | 90 | 1029.6 |
| 20260509200905 | 56 | 0 | 0.0 | 0.0 | 0.00 | 0.08 | 0.02 | 90 | 1029.5 |
| 20260509200004 | 56 | 0 | 0.0 | 0.0 | 0.00 | 0.08 | 0.02 | 90 | 1029.5 |
| 20260509195405 | 56 | 0 | 0.0 | 0.0 | 0.00 | 0.08 | 0.02 | 90 | 1029.4 |
| 20260509194503 | 56 | 0 | 0.0 | 0.0 | 0.01 | 0.08 | 0.02 | 90 | 1029.4 |
| 20260509193603 | 56 | 0 | 0.0 | 0.0 | 0.01 | 0.08 | 0.02 | 90 | 1029.2 |
| 20260509192705 | 56 | 0 | 0.0 | 0.0 | 0.01 | 0.08 | 0.02 | 90 | 1029.1 |
| 20260509191805 | 56 | 0 | 0.0 | 0.0 | 0.01 | 0.08 | 0.02 | 90 | 1028.9 |
| 20260509190905 | 56 | 0 | 0.0 | 0.0 | 0.01 | 0.08 | 0.02 | 90 | 1028.9 |
| 20260509190004 | 56 | 0 | 0.0 | 0.0 | 0.01 | 0.08 | 0.02 | 90 | 1028.8 |
| 20260509185403 | 56 | 0 | 0.0 | 0.0 | 0.01 | 0.08 | 0.02 | 90 | 1028.7 |
| 20260509184505 | 56 | 0 | 0.0 | 0.0 | 0.00 | 0.07 | 0.01 | 90 | 1028.7 |
| 20260509183603 | 56 | 0 | 0.0 | 0.0 | 0.00 | 0.07 | 0.01 | 90 | 1028.6 |
| 20260509182913 | 56 | 0 | 0.0 | 0.0 | 0.00 | 0.08 | 0.01 | 90 | 1028.5 |
| 20260509181803 | 56 | 0 | 0.0 | 0.0 | 0.01 | 0.08 | 0.01 | 90 | 1028.4 |
| 20260509180903 | 56 | 0 | 0.0 | 0.0 | 0.01 | 0.08 | 0.01 | 90 | 1028.4 |
| 20260509180008 | 56 | 0 | 0.0 | 0.0 | 0.01 | 0.08 | 0.01 | 90 | 1028.4 |
| 20260509175404 | 56 | 0 | 0.0 | 0.0 | 0.01 | 0.08 | 0.01 | 90 | 1028.3 |
| 20260509174714 | 56 | 0 | 0.0 | 0.0 | 0.01 | 0.08 | 0.01 | 90 | 1028.4 |
| 20260509173605 | 56 | 0 | 0.0 | 0.0 | 0.01 | 0.08 | 0.01 | 90 | 1028.4 |
| 20260509172703 | 57 | 0 | 0.0 | 0.0 | 0.01 | 0.09 | 0.01 | 89 | 1028.4 |
| 20260509171803 | 57 | 0 | 0.0 | 0.0 | 0.00 | 0.08 | 0.00 | 89 | 1028.5 |
| 20260509170904 | 57 | 0 | 0.0 | 0.0 | 0.00 | 0.08 | 0.00 | 89 | 1028.5 |
| 20260509170218 | 57 | 0 | 0.0 | 0.0 | 0.00 | 0.08 | 0.00 | 89 | 1028.5 |
| 20260509165405 | 57 | 0 | 0.0 | 0.0 | 0.00 | 0.08 | 0.00 | 89 | 1028.5 |
| 20260509164503 | 57 | 0 | 0.0 | 0.0 | 0.00 | 0.08 | 0.00 | 90 | 1028.6 |
| 20260509163603 | 57 | 0 | 0.0 | 0.0 | 0.00 | 0.08 | 0.00 | 90 | 1028.6 |
| 20260509162705 | 57 | 0 | 0.0 | 0.0 | 0.00 | 0.08 | 0.00 | 90 | 1028.6 |
| 20260509161805 | 57 | 0 | 0.0 | 0.0 | 0.00 | 0.08 | 0.00 | 90 | 1028.6 |
| 20260509160903 | 57 | 0 | 0.0 | 0.0 | 0.00 | 0.08 | 0.00 | 90 | 1028.7 |
| 20260509160214 | 57 | 0 | 0.0 | 0.0 | 0.00 | 0.08 | 0.00 | 90 | 1028.7 |
| 20260509155403 | 57 | 0 | 0.0 | 0.0 | 0.00 | 0.08 | 0.00 | 90 | 1028.7 |
| 20260509154505 | 57 | 0 | 0.0 | 0.0 | 0.00 | 0.08 | 0.00 | 89 | 1028.6 |
| 20260509153814 | 57 | 0 | 0.0 | 0.0 | 0.00 | 0.08 | 0.00 | 89 | 1028.7 |
| 20260509152705 | 57 | 0 | 0.0 | 0.0 | 0.00 | 0.08 | 0.00 | 89 | 1028.6 |
| 20260509151803 | 57 | 0 | 0.0 | 0.0 | 0.00 | 0.08 | 0.00 | 89 | 1028.6 |
| 20260509150903 | 57 | 0 | 0.0 | 0.0 | 0.00 | 0.08 | 0.00 | 89 | 1028.7 |
| 20260509150005 | 57 | 0 | 0.0 | 0.0 | 0.00 | 0.08 | 0.00 | 89 | 1028.7 |
| 20260509145405 | 57 | 0 | 0.0 | 0.0 | 0.00 | 0.08 | 0.00 | 89 | 1028.7 |
| 20260509144713 | 57 | 0 | 0.0 | 0.0 | 0.00 | 0.08 | 0.00 | 89 | 1028.7 |
| 20260509143814 | 57 | 0 | 0.0 | 0.0 | 0.00 | 0.08 | 0.00 | 89 | 1028.7 |
| 20260509142708 | 57 | 0 | 0.0 | 0.0 | 0.00 | 0.08 | 0.00 | 88 | 1028.7 |
| 20260509141803 | 57 | 0 | 0.0 | 0.0 | 0.00 | 0.08 | 0.00 | 88 | 1028.8 |
| 20260509140908 | 57 | 0 | 0.0 | 0.0 | 0.00 | 0.08 | 0.00 | 88 | 1028.8 |
| 20260509140004 | 57 | 0 | 0.0 | 0.0 | 0.00 | 0.08 | 0.00 | 88 | 1028.8 |
| 20260509135403 | 57 | 0 | 0.0 | 0.0 | 0.00 | 0.08 | 0.08 | 88 | 1028.8 |
| 20260509134508 | 57 | 0 | 0.0 | 0.0 | 0.00 | 0.08 | 0.08 | 88 | 1028.8 |
| 20260509133608 | 57 | 0 | 0.0 | 0.0 | 0.00 | 0.08 | 0.08 | 88 | 1028.8 |
| 20260509132703 | 57 | 0 | 0.0 | 0.0 | 0.00 | 0.08 | 0.08 | 88 | 1028.7 |
| 20260509132014 | 57 | 0 | 0.0 | 0.0 | 0.00 | 0.08 | 0.08 | 88 | 1028.8 |
| 20260509130908 | 57 | 0 | 0.0 | 0.0 | 0.00 | 0.08 | 0.08 | 88 | 1028.8 |
| 20260509130008 | 57 | 0 | 0.0 | 0.0 | 0.00 | 0.08 | 0.08 | 88 | 1028.8 |
| 20260509125612 | 57 | 0 | 0.0 | 0.0 | 0.00 | 0.08 | 0.08 | 88 | 1028.8 |
| 20260509124503 | 57 | 0 | 0.0 | 0.0 | 0.00 | 0.08 | 0.08 | 88 | 1028.9 |
| 20260509123608 | 57 | 0 | 0.0 | 0.0 | 0.00 | 0.08 | 0.08 | 88 | 1028.9 |
| 20260509122703 | 57 | 0 | 0.0 | 0.0 | 0.00 | 0.08 | 0.08 | 88 | 1028.9 |
| 20260509122018 | 57 | 0 | 0.0 | 0.0 | 0.00 | 0.08 | 0.08 | 88 | 1028.9 |
| 20260509120903 | 57 | 0 | 0.0 | 0.0 | 0.00 | 0.08 | 0.08 | 88 | 1028.9 |
| 20260509120008 | 57 | 0 | 0.0 | 0.0 | 0.00 | 0.08 | 0.08 | 88 | 1028.9 |
| 20260509115403 | 57 | 0 | 0.0 | 0.0 | 0.00 | 0.08 | 0.08 | 87 | 1028.9 |
| 20260509114513 | 56 | 0 | 0.0 | 0.0 | 0.00 | 0.08 | 0.08 | 87 | 1028.8 |
| 20260509113608 | 56 | 0 | 0.0 | 0.0 | 0.00 | 0.08 | 0.08 | 87 | 1028.7 |
| 20260509112703 | 56 | 0 | 0.0 | 0.0 | 0.00 | 0.08 | 0.08 | 87 | 1028.7 |
| 20260509111804 | 56 | 0 | 0.0 | 0.0 | 0.00 | 0.08 | 0.08 | 86 | 1028.6 |
| 20260509110908 | 56 | 0 | 0.0 | 0.0 | 0.00 | 0.08 | 0.08 | 86 | 1028.6 |
| 20260509110218 | 56 | 0 | 0.0 | 0.0 | 0.00 | 0.08 | 0.08 | 86 | 1028.6 |
| 20260509105403 | 56 | 0 | 0.0 | 0.0 | 0.00 | 0.08 | 0.08 | 86 | 1028.6 |
| 20260509104508 | 57 | 0 | 0.0 | 0.0 | 0.00 | 0.08 | 0.08 | 86 | 1028.5 |
| 20260509103603 | 57 | 0 | 0.0 | 0.0 | 0.00 | 0.08 | 0.08 | 86 | 1028.4 |
| 20260509102703 | 57 | 0 | 0.0 | 0.0 | 0.00 | 0.08 | 0.08 | 85 | 1028.4 |
| 20260509101803 | 57 | 0 | 0.0 | 0.0 | 0.00 | 0.08 | 0.08 | 85 | 1028.5 |
| 20260509100903 | 57 | 0 | 0.0 | 0.0 | 0.00 | 0.08 | 0.08 | 85 | 1028.4 |
| 20260509100008 | 57 | 0 | 0.0 | 0.0 | 0.00 | 0.08 | 0.08 | 85 | 1028.4 |
| 20260509095403 | 57 | 0 | 0.0 | 0.0 | 0.00 | 0.08 | 0.08 | 84 | 1028.4 |
| 20260509094503 | 57 | 0 | 0.0 | 0.0 | 0.00 | 0.08 | 0.08 | 83 | 1028.3 |
| 20260509093814 | 58 | 0 | 0.0 | 0.0 | 0.00 | 0.08 | 0.08 | 83 | 1028.3 |
| 20260509092708 | 58 | 0 | 0.0 | 0.0 | 0.00 | 0.08 | 0.08 | 83 | 1028.2 |
| 20260509091803 | 58 | 0 | 0.0 | 0.0 | 0.00 | 0.08 | 0.08 | 83 | 1028.1 |
| 20260509090903 | 58 | 0 | 0.0 | 0.0 | 0.00 | 0.08 | 0.08 | 83 | 1028.2 |
| 20260509090218 | 58 | 0 | 0.0 | 0.0 | 0.00 | 0.08 | 0.08 | 83 | 1028.0 |
| 20260509085403 | 58 | 0 | 0.0 | 0.0 | 0.00 | 0.08 | 0.08 | 82 | 1028.0 |
| 20260509084503 | 59 | 0 | 0.0 | 0.0 | 0.00 | 0.08 | 0.08 | 82 | 1027.9 |
| 20260509083603 | 59 | 0 | 0.0 | 0.0 | 0.00 | 0.08 | 0.08 | 81 | 1027.8 |
| 20260509082919 | 59 | 0 | 0.0 | 0.0 | 0.00 | 0.08 | 0.08 | 81 | 1027.7 |
| 20260509081808 | 59 | 0 | 0.0 | 0.0 | 0.00 | 0.08 | 0.08 | 82 | 1027.6 |
| 20260509080903 | 60 | 0 | 0.0 | 0.0 | 0.00 | 0.08 | 0.08 | 82 | 1027.5 |
| 20260509080008 | 60 | 0 | 0.0 | 0.0 | 0.00 | 0.08 | 0.08 | 82 | 1027.5 |
| 20260509075613 | 60 | 0 | 0.0 | 0.0 | 0.00 | 0.08 | 0.08 | 81 | 1027.4 |
| 20260509074508 | 60 | 0 | 0.0 | 0.0 | 0.00 | 0.08 | 0.08 | 81 | 1027.4 |
| 20260509073603 | 60 | 0 | 0.0 | 0.0 | 0.00 | 0.08 | 0.08 | 81 | 1027.3 |
| 20260509072708 | 60 | 0 | 0.0 | 0.0 | 0.00 | 0.08 | 0.08 | 81 | 1027.1 |
| 20260509072014 | 61 | 0 | 0.0 | 0.0 | 0.00 | 0.08 | 0.08 | 81 | 1027.0 |
| 20260509071117 | 61 | 0 | 0.0 | 0.0 | 0.00 | 0.08 | 0.08 | 81 | 1027.0 |
| 20260509070008 | 61 | 0 | 0.0 | 0.0 | 0.00 | 0.08 | 0.08 | 80 | 1026.9 |
| 20260509065404 | 61 | 0 | 0.0 | 0.0 | 0.00 | 0.08 | 0.08 | 80 | 1026.9 |
| 20260509064508 | 62 | 0 | 0.0 | 0.0 | 0.00 | 0.08 | 0.08 | 79 | 1026.9 |
| 20260509063608 | 62 | 0 | 0.0 | 0.0 | 0.00 | 0.08 | 0.08 | 79 | 1026.8 |
| 20260509062703 | 62 | 0 | 0.0 | 0.0 | 0.00 | 0.08 | 0.08 | 78 | 1026.8 |
| 20260509061808 | 62 | 0 | 0.0 | 0.0 | 0.00 | 0.08 | 0.08 | 79 | 1026.7 |
| 20260509061119 | 62 | 0 | 0.0 | 0.0 | 0.00 | 0.08 | 0.08 | 79 | 1026.7 |
| 20260509060008 | 62 | 0 | 0.0 | 0.0 | 0.00 | 0.08 | 0.08 | 81 | 1026.7 |
| 20260509055403 | 61 | 0 | 0.0 | 0.0 | 0.00 | 0.08 | 0.08 | 81 | 1026.6 |
| 20260509054503 | 61 | 0 | 0.0 | 0.0 | 0.00 | 0.08 | 0.08 | 81 | 1026.7 |
| 20260509053819 | 61 | 0 | 0.0 | 0.0 | 0.00 | 0.08 | 0.08 | 81 | 1026.6 |
| 20260509052703 | 61 | 0 | 0.0 | 0.0 | 0.00 | 0.08 | 0.08 | 82 | 1026.5 |
| 20260509051808 | 61 | 0 | 0.0 | 0.0 | 0.00 | 0.08 | 0.08 | 82 | 1026.6 |
| 20260509050908 | 61 | 0 | 0.0 | 0.0 | 0.00 | 0.08 | 0.08 | 82 | 1026.6 |
| 20260509050008 | 61 | 0 | 0.0 | 0.0 | 0.00 | 0.08 | 0.08 | 82 | 1026.6 |
| 20260509045403 | 61 | 0 | 0.0 | 0.0 | 0.00 | 0.08 | 0.08 | 82 | 1026.7 |
| 20260509044504 | 61 | 0 | 0.0 | 0.0 | 0.00 | 0.08 | 0.08 | 82 | 1026.7 |
| 20260509043603 | 61 | 0 | 0.0 | 0.0 | 0.00 | 0.08 | 0.08 | 81 | 1026.7 |
| 20260509042708 | 61 | 0 | 0.0 | 0.0 | 0.00 | 0.08 | 0.08 | 82 | 1026.7 |
| 20260509042013 | 61 | 0 | 0.0 | 0.0 | 0.00 | 0.08 | 0.08 | 82 | 1026.7 |
| 20260509040913 | 61 | 0 | 0.0 | 0.0 | 0.00 | 0.08 | 0.08 | 84 | 1026.7 |
| 20260509040004 | 60 | 0 | 0.0 | 0.0 | 0.00 | 0.08 | 0.08 | 86 | 1026.8 |
| 20260509035408 | 60 | 0 | 0.0 | 0.0 | 0.00 | 0.08 | 0.08 | 85 | 1026.7 |
| 20260509034508 | 60 | 0 | 0.0 | 0.0 | 0.00 | 0.08 | 0.08 | 86 | 1026.7 |
| 20260509033608 | 60 | 0 | 0.0 | 0.0 | 0.00 | 0.08 | 0.08 | 87 | 1026.8 |